Regional Weather Roundup
Issued by NWS

Home | Current Version | Previous Version | Text Only | Print | Product List | Glossary On
Versions: 1 2 3 4 5 6 7 8 9 10 11 12 13 14 15 16 17 18 19 20 21 22 23 24 25 26 27 28 29 30 31 32 33 34 35 36 37 38 39 40 41 42 43 44 45 46 47 48 49 50
000
ASUS42 KFFC 200003
RWRGA
WEATHER ROUNDUP FOR GEORGIA
NATIONAL WEATHER SERVICE PEACHTREE CITY GA
800 PM EDT SUN APR 19 2015

NOTE: "FAIR" INDICATES FEW OR NO CLOUDS BELOW 12,000 FEET WITH NO
SIGNIFICANT WEATHER AND/OR OBSTRUCTIONS TO VISIBILITY.

* = USE WITH CAUTION. THE STATIONS MARKED WITH AN ASTERISK MAY NOT
REPORT WEATHER SUCH AS PRECIPITATION, FOG, OR THUNDER AND ARE NOT
QUALITY CONTROLLED BY NWS.

THE REMARK "TC" DENOTES TEMPERATURE READING IN DEGREES CELSIUS.

GAZ001>058-200100-
NORTH GEORGIA

CITY           SKY/WX    TMP DP  RH WIND       PRES   REMARKS
ATLANTA        MOCLDY    69  62  78 SW7G18    29.71S
6HR MIN TEMP:  68; 6HR MAX TEMP:  71; 6HR PCP:  0.04;

ATHENS         CLOUDY    67  65  93 VRB5      29.72S
6HR MIN TEMP:  67; 6HR MAX TEMP:  69; 6HR PCP:  0.59;

CHAMBLEE       MOCLDY    68  63  84 S12       29.71R
6HR MIN TEMP:  67; 6HR MAX TEMP:  70;

PEACHTREE CITY PTCLDY    69  64  84 VRB5      29.72F
6HR MIN TEMP:  68; 6HR MAX TEMP:  71; 6HR PCP:  0.05;

ROME           CLOUDY    69  63  81 SW6G18    29.66R THUNDER
6HR MIN TEMP:  68; 6HR MAX TEMP:  76; 6HR PCP:  0.17;

WEST ATLANTA   PTCLDY    70  62  76 SW9       29.70R
6HR MIN TEMP:  69; 6HR MAX TEMP:  72;

GAINESVILLE    CLOUDY    67  63  87 S6        29.72S
6HR MIN TEMP:  66; 6HR MAX TEMP:  68; 6HR PCP:  0.12;

CARTERSVILLE   MOCLDY    70  63  78 S9        29.67R
6HR MIN TEMP:  68; 6HR MAX TEMP:  75;



CITY           SKY/WX    TMP DP  RH WIND       PRES   REMARKS
DALTON*        MOCLDY    68  68 100 CALM      29.65R
LAWRENCEVILLE* MOCLDY    66  61  82 SW9G17    29.70F
KENNESAW*      MOCLDY    70  64  83 SW10      29.71R
BLAIRSVILLE*     N/A     67  45  43 SW8       29.71S
$$

GAZ059>098-102>109-200100-
CENTRAL GEORGIA

CITY           SKY/WX    TMP DP  RH WIND       PRES   REMARKS
AUGUSTA-BUSH   CLOUDY    66  65  96 S5        29.76R
6HR MIN TEMP:  66; 6HR MAX TEMP:  76; 6HR PCP:  1.01;

AUGUSTA-DANIEL CLOUDY    67  64  90 S6        29.76F
6HR MIN TEMP:  67; 6HR MAX TEMP:  76; 6HR PCP:  0.41;

COLUMBUS       MOCLDY    70  65  84 SW12      29.74F
6HR MIN TEMP:  67; 6HR MAX TEMP:  71; 6HR PCP: TRACE;

MACON          CLOUDY    68  64  87 SW7       29.76S
6HR MIN TEMP:  67; 6HR MAX TEMP:  70; 6HR PCP:  0.06;

ROBINS AFB     MOCLDY    69  65  85 SW12      29.76R


CITY           SKY/WX    TMP DP  RH WIND       PRES   REMARKS
LAGRANGE*      PTCLDY    73  69  87 S8        29.73F
SYLVANIA*      MOCLDY    66  66 100 CALM      29.77R
MILLEDGEVILLE* MOCLDY    68  66  94 CALM      29.74F
$$

GAZ099>101-110>166-200100-
SOUTH GEORGIA

CITY           SKY/WX    TMP DP  RH WIND       PRES   REMARKS
SAVANNAH       MOCLDY    67  64  90 SE8       29.77F
6HR MIN TEMP:  67; 6HR MAX TEMP:  81; 6HR PCP:  0.57;

VALDOSTA       NOT AVBL
ALMA           PTCLDY    68  65  90 SW5       29.80S
6HR MIN TEMP:  65; 6HR MAX TEMP:  78; 6HR PCP:  0.56;

ST SIMONS      CLOUDY    69  67  93 SE5       29.81F
6HR MIN TEMP:  68; 6HR MAX TEMP:  77; 6HR PCP:  0.23;

ALBANY         PTCLDY    71  66  84 SW9       29.81S
HUNTER AFB     MOCLDY    67  67 100 SE6       29.75F
MOODY AFB      MOCLDY    69  65  89 SW7       29.81R
BRUNSWICK      CLOUDY    70  66  88 S3        29.82R


CITY           SKY/WX    TMP DP  RH WIND       PRES   REMARKS
BAINBRIDGE*    CLOUDY    73  68  83 SW7       29.81F
MOULTRIE*      PTCLDY    70 N/A N/A S6        29.83S
VIDALIA*       MOCLDY    66  64  94 SW6       29.79R
WAYCROSS*      PTCLDY    71  70  96 SW6         N/A
DOUGLAS*       PTCLDY    70  68  94 SW5       29.83R
$$



USA.gov is the U.S. government's official web portal to all federal, state and local government web resources and services.